This demonstration page uses our WeatherBlox Daily Observations layout. Learn more.

Left ArrowRight Arrow

Hourly Observations for March 9, 2018

Temp ( °F °C ) Dew Point ( °F °C ) Humidity (%) Winds ( mph kmh ) Pressure ( in mb ) Visibility ( mi km ) Precip ( " mm )
12:54 am 00:54 Clear 32 0 19 -7.2 59 59 ESE 8 13 29.98 1015 10 16 0.00 0.00
1:54 am 01:54 Clear 32 0 19 -7.2 59 59 ESE 8 13 29.97 1015 10 16 0.00 0.00
2:54 am 02:54 Partly Cloudy 31 -0.6 19 -7.2 61 61 SE 12 19 29.93 1014 10 16 0.00 0.00
3:54 am 03:54 Partly Cloudy 29 -1.7 18 -7.8 63 63 ESE 7 11 29.92 1013 10 16 0.00 0.00
4:54 am 04:54 Mostly Cloudy 29 -1.7 19 -7.2 66 66 E 8 13 29.89 1012 10 16 0.00 0.00
5:54 am 05:54 Mostly Cloudy 31 -0.6 20 -6.7 64 64 SE 14 22 29.85 1011 10 16 0.00 0.00
6:54 am 06:54 Mostly Cloudy 32 0 20 -6.7 61 61 SE 8 13 29.86 1011 10 16 0.00 0.00
7:54 am 07:54 Mostly Sunny 32 0 20 -6.7 61 61 E 7 11 29.88 1012 10 16 0.00 0.00
8:54 am 08:54 Sunny 36 2.2 21 -6.1 55 55 SE 9 15 29.88 1012 10 16 0.00 0.00
9:54 am 09:54 Sunny 41 5 20 -6.7 43 43 E 10 17 29.87 1012 10 16 0.00 0.00
10:54 am 10:54 Sunny 45 7.2 21 -6.1 39 39 SE 16 26 29.85 1011 10 16 0.00 0.00
11:54 am 11:54 Sunny 47 8.3 22 -5.6 37 37 ESE 13 20 29.85 1011 10 16 0.00 0.00
12:54 pm 12:54 Sunny 50 10 24 -4.4 36 36 ESE 10 17 29.85 1011 10 16 0.00 0.00
1:54 pm 13:54 Sunny 52 11.1 24 -4.4 34 34 ENE 15 24 29.84 1011 10 16 0.00 0.00
2:54 pm 14:54 Sunny 53 11.7 25 -3.9 34 34 ENE 16 26 29.85 1011 10 16 0.00 0.00
3:54 pm 15:54 Sunny 53 11.7 25 -3.9 34 34 ESE 14 22 29.84 1011 10 16 0.00 0.00
4:54 pm 16:54 Sunny 52 11.1 24 -4.4 34 34 ENE 10 17 29.85 1011 10 16 0.00 0.00
5:54 pm 17:54 Sunny 50 10 24 -4.4 36 36 E 14 22 29.87 1011 10 16 0.00 0.00
6:54 pm 18:54 Clear 45 7.2 24 -4.4 44 44 E 7 11 29.89 1012 10 16 0.00 0.00
7:54 pm 19:54 Clear 35 1.7 23 -5 61 61 ENE 5 7 29.91 1013 10 16 0.00 0.00
8:54 pm 20:54 Clear 39 3.9 26 -3.3 60 60 E 9 15 29.92 1013 10 16 0.00 0.00
9:54 pm 21:54 Clear 36 2.2 26 -3.3 67 67 E 3 6 29.92 1013 10 16 0.00 0.00
10:54 pm 22:54 Clear 35 1.7 26 -3.3 70 70 E 8 13 29.91 1013 10 16 0.00 0.00
11:54 pm 23:54 Clear 34 1.1 26 -3.3 73 73 ESE 7 11 29.89 1012 10 16 0.00 0.00

Powered by AerisWeather